Regional Weather Roundup
Issued by NWS

Home | Current Version | Previous Version | Text Only | Print | Product List | Glossary On
Versions: 1 2 3 4 5 6 7 8 9 10 11 12 13 14 15 16 17 18 19 20 21 22 23 24 25 26 27 28 29 30 31 32 33 34 35 36 37 38 39 40 41 42 43 44 45 46 47 48 49 50
000
ASUS43 KDTX 280401
RWRMI
MICHIGAN HOURLY REGIONAL WEATHER ROUNDUP
NATIONAL WEATHER SERVICE DETROIT/PONTIAC MI
1100 PM EST SAT DEC 27 2014

NOTE: "FAIR" INDICATES FEW OR NO CLOUDS BELOW 12,000 FEET WITH NO
SIGNIFICANT WEATHER AND/OR OBSTRUCTION TO VISIBILITY.

MIZ047>049-052>055-059>063-066>070-074>076-081>083-280500-
SOUTHEAST LOWER MICHIGAN

CITY           SKY/WX    TMP DP  RH WIND       PRES   REMARKS
ADRIAN         CLOUDY    37  33  85 NW10      30.02S WCI  30
ALMA           CLOUDY    35  32  88 W8        29.98R WCI  29
ANN ARBOR      CLOUDY    38  32  79 W16G23    29.99S WCI  29
BAD AXE        CLOUDY    37  34  89 W14G21    29.92S WCI  29
CARO           CLOUDY    38  33  82 W12G20    29.94F WCI  30
DETROIT CITY   CLOUDY    41  33  73 W9        29.97F
DETROIT        CLOUDY    39  34  82 W7        30.00R WCI  34
FLINT          CLOUDY    39  32  76 W15       29.98F WCI  31
GROSSE ILE     RAIN      39  36  87 W8        29.99R WCI  34
HILLSDALE      CLOUDY    35  33  90 W12       30.00F WCI  27
HOWELL         CLOUDY    36  32  86 W15       29.99R WCI  26

CITY           SKY/WX    TMP DP  RH WIND       PRES   REMARKS
JACKSON        CLOUDY    35  30  82 W10       30.00R WCI  27
LAMBERTVILLE   RAIN      37  34  87 W9        30.02R WCI  31
LANSING        CLOUDY    36  29  75 W13       30.00R WCI  27
LAPEER         CLOUDY    37  32  82 W9G18     29.96R WCI  30
MASON          CLOUDY    35  31  84 W15       30.00R WCI  25
MONROE         RAIN      37  36  93 W15       29.99S WCI  28
MT. CLEMENS    CLOUDY    40  35  81 W16G24    29.94F WCI  31
PONTIAC        CLOUDY    37  30  75 W18G31    29.97R WCI  27
PORT HOPE        N/A     39  32  76 W9G21     29.89R WCI  33
PORT HURON     CLOUDY    39  34  81 W6G16     29.95F WCI  35
TRI CITIES     CLOUDY    38  31  76 W15       29.96S WCI  29
TROY           CLOUDY    41  33  73 W16       29.99S
SAGINAW HB     CLOUDY    37  32  81 W14G20    29.96S WCI  29
$$
MIZ043>046-050>051-056>058-064>065-071>073-077>080-280500-
SOUTHWEST LOWER MICHIGAN

CITY           SKY/WX    TMP DP  RH WIND       PRES   REMARKS
BATTLE CREEK   CLOUDY    36  30  79 W10       30.02S WCI  28
BENTON HARBOR  CLOUDY    35  28  75 W9        30.07R WCI  28
BIG RAPIDS     CLOUDY    34  32  94 NW5       29.98R WCI  30
COLDWATER      CLOUDY    35  31  87 W15       30.03R WCI  25
FREMONT        CLOUDY    34  33  96 W5        30.00R WCI  30
HOLLAND        CLOUDY    38  30  73 W12       30.04R WCI  30
GRAND RAPIDS   FLURRIES  35  30  82 W13       30.01S WCI  26
IONIA          CLOUDY    37  30  78 W10       29.99S WCI  29
KALAMAZOO      CLOUDY    36  30  79 W9        30.03F WCI  29
LUDINGTON      CLOUDY    36  32  87 NW5       30.01S WCI  32
MARSHALL       CLOUDY    34  30  86 W12G20    30.01S WCI  25
MOUNT PLEASANT CLOUDY    35  32  88 CALM      29.97R
MUSKEGON       LGT RAIN  35  33  92 NW9       30.03R FOG     WCI  28
SOUTH HAVEN    CLOUDY    37  30  75 NW7       30.05S WCI  31
$$
MIZ016>042-280500-
NORTHERN LOWER MICHIGAN

CITY           SKY/WX    TMP DP  RH WIND       PRES   REMARKS
ALPENA         LGT SNOW  30  27  88 NW8G21    29.91R FOG     WCI  22
BEAVER ISLAND  CLOUDY    31  26  80 W8        29.95S WCI  24
BELLAIRE       CLOUDY    33  28  81 NW3       29.97S
CADILLAC       LGT SNOW  32  30  92 NW9       29.95R WCI  24
CHARLEVOIX     CLOUDY    32  27  79 NW10G23   29.98R WCI  24
FRANKFORT      CLOUDY    34  31  90 NW7       29.98S WCI  28
GAYLORD        CLOUDY    29  23  78 NW7       29.91S WCI  22
GRAYLING       CLOUDY    31  28  88 NW12      29.94R WCI  21
HARBOR SPRINGS CLOUDY    31  24  76 NW9       29.94S WCI  23
HOUGHTON LAKE  CLOUDY    32  28  85 NW10      29.94R WCI  24
MANISTEE       CLOUDY    36  28  75 NW8       30.01R WCI  29
OSCODA         CLOUDY    33  28  81 NW7       29.92R WCI  27
PELLSTON       CLOUDY    31  24  75 NW9       29.95R WCI  23
ROGERS CITY    CLOUDY    31  27  86 W14G20    29.93R WCI  21
TRAVERSE CITY  CLOUDY    33  31  92 W3        29.97R
$$
MIZ007>008-015-280500-
EASTERN UPPER MICHIGAN

CITY           SKY/WX    TMP DP  RH WIND       PRES   REMARKS
KINROSS        CLOUDY    28  27  93 W13       29.89R WCI  18
MACKINAC ISLAN CLOUDY    31  26  81 W12G20    29.93R WCI  21
NEWBERRY       FLURRIES  27  26  96 W8        29.91S WCI  18
S. S. MARIE    CLOUDY    31  22  69 NW16G23   29.85S WCI  20
MUNISING         N/A     30  21  69 W12G18    29.95R WCI  20
$$
MIZ004>006-011>014-085-280500-
CENTRAL UPPER MICHIGAN

CITY           SKY/WX    TMP DP  RH WIND       PRES   REMARKS
MANISTIQUE     CLOUDY    28  27  95 W6        29.95S WCI  22
ESCANABA       CLOUDY    28  25  86 W6        29.98R WCI  22
MENOMINEE      PTCLDY    28  19  69 NW6       30.01R WCI  22
SAWYER-GWINN   PTCLDY    22  17  79 W8        29.94S WCI  13
$$
MIZ001>003-009>011-084-280500-
WESTERN UPPER MICHIGAN

CITY           SKY/WX    TMP DP  RH WIND       PRES   REMARKS
IRON MOUNTAIN    N/A     22  15  75 W9        29.97R WCI  12
HOUGHTON       CLOUDY    21  14  74 W7        29.92S WCI  12
COPPER HARBOR    N/A     25  16  68 N17G29    29.94R WCI  12
IRONWOOD       MOCLDY    16  12  86 SW8       29.96R WCI   5
$$

ABBREVIATIONS USED IN REMARKS
   TC - TEMPERATURE IN CELSIUS
  WCI - WIND CHILL INDEX
   HX - HEAT INDEX
  VSB - VISIBILITY



USA.gov is the U.S. government's official web portal to all federal, state and local government web resources and services.